Regional Weather Roundup
Issued by NWS

Home | Current Version | Previous Version | Text Only | Print | Product List | Glossary Off
Versions: 1 2 3 4 5 6 7 8 9 10 11 12 13 14 15 16 17 18 19 20 21 22 23 24 25 26 27 28 29 30 31 32 33 34 35 36 37 38 39 40 41 42 43 44 45 46 47 48 49 50

000
ASUS43 KDTX 260010
RWRMI
MICHIGAN HOURLY REGIONAL WEATHER ROUNDUP
NATIONAL WEATHER SERVICE DETROIT/PONTIAC MI
800 PM EDT FRI JUL 25 2014

NOTE: "FAIR" INDICATES FEW OR NO CLOUDS BELOW 12,000 FEET WITH NO
SIGNIFICANT WEATHER AND/OR OBSTRUCTION TO VISIBILITY.

MIZ047>049-052>055-059>063-066>070-074>076-081>083-260100-
SOUTHEAST LOWER MICHIGAN

CITY           SKY/WX    TMP DP  RH WIND       PRES   REMARKS
ADRIAN         LGT RAIN  70  57  63 W5        30.00S
6HR MIN TEMP:  70; 6HR MAX TEMP:  80; 6HR PCP: TRACE;

ALMA           CLOUDY    73  55  53 SW5       29.95F
6HR MIN TEMP:  71; 6HR MAX TEMP:  75;

ANN ARBOR      CLOUDY    71  53  52 W15       29.98S
BAD AXE        MOCLDY    71  53  54 SW5       29.95S
6HR MIN TEMP:  71; 6HR MAX TEMP:  76;

DETROIT CITY   CLOUDY    76  55  48 S9        29.96F
6HR MIN TEMP:  76; 6HR MAX TEMP:  80;

DETROIT        CLOUDY    74  55  51 S14       29.97F
6HR MIN TEMP:  74; 6HR MAX TEMP:  79;

FLINT          CLOUDY    72  58  61 CALM      29.96F
6HR MIN TEMP:  72; 6HR MAX TEMP:  77; 6HR PCP: TRACE;

GROSSE ILE     CLOUDY    73  55  53 SW7       29.96S
HILLSDALE      LGT RAIN  68  63  84 CALM      30.00S
HOWELL         CLOUDY    71  53  54 SW6       29.97F
6HR MIN TEMP:  71; 6HR MAX TEMP:  76;


CITY           SKY/WX    TMP DP  RH WIND       PRES   REMARKS
JACKSON        CLOUDY    68  57  68 SW6       29.98F
6HR MIN TEMP:  67; 6HR MAX TEMP:  76;

LAMBERTVILLE   LGT RAIN  72  54  53 SW3       29.99S
LANSING        CLOUDY    72  54  53 SW10      29.97F
6HR MIN TEMP:  72; 6HR MAX TEMP:  77;

LAPEER         NOT AVBL
MASON          CLOUDY    69  55  60 SW5       29.97F
MONROE         LGT RAIN  70  57  64 SW6       29.97S
MT. CLEMENS    CLOUDY    74  53  47 W5        29.94F
6HR MIN TEMP:  73; 6HR MAX TEMP:  79;

PONTIAC        CLOUDY    73  51  46 W7        29.97S
6HR MIN TEMP:  73; 6HR MAX TEMP:  78;

PORT HOPE        N/A     72  51  47 SW3       29.93R
6HR MIN TEMP:  69; 6HR MAX TEMP:  77;

PORT HURON     CLOUDY    70  59  68 S5        29.97S
TRI CITIES     CLOUDY    73  57  57 SW6       29.95F
6HR MIN TEMP:  73; 6HR MAX TEMP:  77;

YPSILANTI      CLOUDY    77  54  44 SW15      29.97F
6HR MIN TEMP:  77; 6HR MAX TEMP:  82;

$$
MIZ043>046-050>051-056>058-064>065-071>073-077>080-260100-
SOUTHWEST LOWER MICHIGAN

CITY           SKY/WX    TMP DP  RH WIND       PRES   REMARKS
BATTLE CREEK   CLOUDY    70  56  61 S6        29.98F
6HR MIN TEMP:  70; 6HR MAX TEMP:  77; 6HR PCP: TRACE;

BENTON HARBOR  CLOUDY    72  58  61 S6        29.95S
6HR MIN TEMP:  70; 6HR MAX TEMP:  76;

BIG RAPIDS     SUNNY     70  54  56 SW9G16    29.94S
6HR MIN TEMP:  70; 6HR MAX TEMP:  73;

COLDWATER      CLOUDY    69  61  75 CALM      29.98F
6HR MIN TEMP:  69; 6HR MAX TEMP:  77;

HOLLAND        CLOUDY    72  59  63 S5        29.95F
6HR MIN TEMP:  70; 6HR MAX TEMP:  77; 6HR PCP: TRACE;

GRAND RAPIDS   PTSUNNY   73  57  57 SW7       29.96F
6HR MIN TEMP:  73; 6HR MAX TEMP:  77;

KALAMAZOO      CLOUDY    70  58  65 SE3       29.97F
6HR MIN TEMP:  70; 6HR MAX TEMP:  76; 6HR PCP: TRACE;

MARSHALL       CLOUDY    67  58  73 CALM      29.97F
MUSKEGON       PTSUNNY   70  57  63 S8        29.94F
6HR MIN TEMP:  69; 6HR MAX TEMP:  74;

$$
MIZ016>042-260100-
NORTHERN LOWER MICHIGAN

CITY           SKY/WX    TMP DP  RH WIND       PRES   REMARKS
ALPENA         CLOUDY    74  58  57 SW8       29.89R
6HR MIN TEMP:  74; 6HR MAX TEMP:  79;

BEAVER ISLAND  CLOUDY    65  57  75 SW10      29.89S
6HR MIN TEMP:  65; 6HR MAX TEMP:  70;

BELLAIRE       CLOUDY    69  57  63 S6        29.89F
6HR MIN TEMP:  69; 6HR MAX TEMP:  78;

CADILLAC       CLOUDY    67  56  67 S9        29.93F
CHARLEVOIX     CLOUDY    70  54  57 S8        29.92F
6HR MIN TEMP:  70; 6HR MAX TEMP:  78;

FRANKFORT      CLOUDY    67  57  71 S9G16     29.90F
GAYLORD        PTSUNNY   68  55  63 SW9       29.92F
6HR MIN TEMP:  68; 6HR MAX TEMP:  76;

GRAYLING       PTSUNNY   69  58  68 SW5       29.94F
6HR MIN TEMP:  69; 6HR MAX TEMP:  77;

HARBOR SPRINGS PTSUNNY   70  56  59 SW10      29.89F
HOUGHTON LAKE  PTSUNNY   69  58  67 SW5       29.94F
6HR MIN TEMP:  67; 6HR MAX TEMP:  76; 6HR PCP:  0.01;

MANISTEE       CLOUDY    68  55  64 S8        29.92F
OSCODA         PTSUNNY   74  55  50 SW12      29.91S
PELLSTON       PTSUNNY   69  55  60 W7        29.89F
6HR MIN TEMP:  69; 6HR MAX TEMP:  77;

TRAVERSE CITY  PTSUNNY   71  53  52 SW8       29.89F
6HR MIN TEMP:  68; 6HR MAX TEMP:  77; 6HR PCP:  0.01;

$$
MIZ007>008-015-260100-
EASTERN UPPER MICHIGAN

CITY           SKY/WX    TMP DP  RH WIND       PRES   REMARKS
KINROSS        MOSUNNY   70  57  64 SW8G18    29.87S
6HR MIN TEMP:  68; 6HR MAX TEMP:  77;

MACKINAC ISLAN CLOUDY    65  57  73 SW13G21   29.87F
6HR MIN TEMP:  65; 6HR MAX TEMP:  70;

NEWBERRY       CLOUDY    64  55  74 S16G30    29.86S
6HR MIN TEMP:  64; 6HR MAX TEMP:  76;

S. S. MARIE    MOSUNNY   70  56  61 SW14G21   29.85S
6HR MIN TEMP:  70; 6HR MAX TEMP:  81;

$$
MIZ004>006-011>014-085-260100-
CENTRAL UPPER MICHIGAN

CITY           SKY/WX    TMP DP  RH WIND       PRES   REMARKS
MANISTIQUE     CLOUDY    60  57  89 S8        29.86F
6HR MIN TEMP:  59; 6HR MAX TEMP:  67;

ESCANABA       CLOUDY    68  57  68 S9        29.84F
6HR MIN TEMP:  68; 6HR MAX TEMP:  73;

MENOMINEE      CLOUDY    72  57  60 SW7       29.85S
6HR MIN TEMP:  70; 6HR MAX TEMP:  75;

SAWYER-GWINN   PTSUNNY   72  61  68 SW14      29.83F
$$
MIZ001>003-009>011-084-260100-
WESTERN UPPER MICHIGAN

CITY           SKY/WX    TMP DP  RH WIND       PRES   REMARKS
IRON MOUNTAIN  CLOUDY    69  60  73 S12       29.84F
6HR MIN TEMP:  69; 6HR MAX TEMP:  76;

HOUGHTON       CLOUDY    67  62  84 NW5       29.80S
6HR MIN TEMP:  66; 6HR MAX TEMP:  77; 6HR PCP:  0.02;

COPPER HARBOR    N/A     65  62  90 SW5       29.77F
6HR MIN TEMP:  64; 6HR MAX TEMP:  71; 6HR PCP:  0.07;

$$

ABBREVIATIONS USED IN REMARKS
   TC - TEMPERATURE IN CELSIUS
  WCI - WIND CHILL INDEX
   HX - HEAT INDEX
  VSB - VISIBILITY



USA.gov is the U.S. government's official web portal to all federal, state and local government web resources and services.